Location: Clandonald
(53.5720°N, 110.7141°W)
Time: 03:05:34
(UTC+00:00)

Envisat - Pass Details

Date: 23 October 2019
Orbit: 764 x 766 km, 98.1° (Epoch: 13 November)

Event Time Altitude Azimuth Distance (km) Brightness Sun altitude
Rises 00:38:22 0° 148° (SSE) 3,225 6.0 -4.8°
Reaches altitude 10° 00:40:42 10° 144° (SE) 2,302 5.2 -5.1°
Maximum altitude 00:45:38 54° 68° (ENE) 927 3.1 -5.8°
Drops below altitude 10° 00:50:36 10° 352° (N) 2,317 5.5 -6.6°
Sets 00:52:57 0° 348° (NNW) 3,247 6.3 -6.9°
